Tracking 17154 objects as of 31-July-2015
HD Live streaming from Space Station

W75/ABS-1B (HOT BIRD 3)

Track W75/ABS-1B (HOT BIRD 3) now!
W75/ABS-1B (HOT BIRD 3) is classified as:


NORAD ID: 24931
Int'l Code: 1997-049A
Perigee: 35,102.2 km
Apogee: 35,269.6 km
Inclination: 5.1 °
Period: 1,405.2 minutes
Semi major axis: 41556 km
RCS: 15.8489 m2 (large)
Launch date: September 2, 1997
Source: European Telecommunications Satellite Organization (EUTE)

Cable programming; direct-to-home broadcasting; Europe, North Africa, 20 active channels
Your satellite tracking list
Your tracking list is empty





NASA's NSSDC Master Catalog

Two Line Element Set (TLE):
1 24931U 97049A   15211.22486546 -.00000097  00000-0  00000+0 0  9991
2 24931 005.1459 059.0219 0020143 314.0914 047.3624 01.02479944 65987

Source of the keplerian elements: AFSPC

N2YO: 290